| time (UTC) | temp F | wind direction | speed knots | gust knots | rain 1hr in | rain 24hr in | rain mn in | humidity % | barometer mb |
| 20260504032847 | 51 | 0.0 | 0.0 | 0.00 | 0.00 | 0.00 | 92 | ||
| 20260504031813 | 51 | 0.0 | 0.0 | 0.00 | 0.00 | 0.00 | 92 | ||
| 20260504030739 | 51 | 0.0 | 0.0 | 0.00 | 0.00 | 0.00 | 92 | ||
| 20260504025705 | 51 | 0.0 | 0.0 | 0.00 | 0.00 | 0.00 | 92 | ||
| 20260504024631 | 51 | 0.0 | 0.0 | 0.00 | 0.00 | 0.00 | 93 | ||
| 20260504021449 | 50 | 0.0 | 0.0 | 0.00 | 0.00 | 0.00 | 93 | ||
| 20260504020416 | 49 | 0.0 | 0.0 | 0.00 | 0.00 | 0.00 | 92 | ||
| 20260504015343 | 49 | 0.0 | 0.0 | 0.00 | 0.00 | 0.00 | 92 | ||
| 20260504014309 | 48 | 0.0 | 0.0 | 0.00 | 0.00 | 0.00 | 92 | ||
| 20260504013236 | 48 | 0.0 | 0.0 | 0.00 | 0.00 | 0.00 | 91 | ||
| 20260504012202 | 48 | 0.0 | 0.0 | 0.00 | 0.00 | 0.00 | 91 | ||
| 20260504011128 | 49 | 0.0 | 0.0 | 0.00 | 0.00 | 0.00 | 91 | ||
| 20260504010055 | 49 | 0.0 | 0.0 | 0.00 | 0.00 | 0.00 | 91 | ||
| 20260504005021 | 49 | 0.0 | 0.0 | 0.00 | 0.00 | 0.00 | 91 | ||
| 20260504003948 | 50 | 0.0 | 0.0 | 0.00 | 0.00 | 0.00 | 91 | ||
| 20260504002913 | 50 | 0.0 | 0.0 | 0.00 | 0.00 | 0.00 | 91 | ||
| 20260504001840 | 49 | 0.0 | 0.0 | 0.00 | 0.00 | 0.00 | 91 | ||
| 20260504000806 | 49 | 0.0 | 0.0 | 0.00 | 0.00 | 0.00 | 90 | ||
| 20260503235732 | 49 | 0.0 | 0.0 | 0.00 | 0.00 | 0.00 | 89 | ||
| 20260503234658 | 49 | 0.0 | 0.0 | 0.00 | 0.00 | 0.00 | 89 | ||
| 20260503233624 | 50 | 0.0 | 0.0 | 0.00 | 0.00 | 0.00 | 89 | ||
| 20260503232550 | 50 | 0.0 | 0.0 | 0.00 | 0.00 | 0.00 | 89 | ||
| 20260503231516 | 51 | 0.0 | 0.0 | 0.00 | 0.00 | 0.00 | 89 | ||
| 20260503230443 | 51 | 0.0 | 0.0 | 0.00 | 0.00 | 0.00 | 89 | ||
| 20260503225409 | 51 | 0.0 | 0.0 | 0.00 | 0.00 | 0.00 | 89 | ||
| 20260503223301 | 51 | 0.0 | 0.0 | 0.00 | 0.00 | 0.00 | 88 | ||
| 20260503222227 | 51 | 0.0 | 0.0 | 0.00 | 0.00 | 0.00 | 89 | ||
| 20260503221153 | 51 | 0.0 | 0.0 | 0.00 | 0.00 | 0.00 | 87 | ||
| 20260503220119 | 51 | 0.0 | 0.0 | 0.00 | 0.00 | 0.00 | 87 | ||
| 20260503215046 | 51 | 0.0 | 0.0 | 0.00 | 0.00 | 0.00 | 87 | ||
| 20260503214011 | 51 | 0.0 | 0.0 | 0.00 | 0.00 | 0.00 | 86 | ||
| 20260503212937 | 51 | 0.0 | 0.0 | 0.00 | 0.00 | 0.00 | 86 | ||
| 20260503211903 | 52 | 0.0 | 0.0 | 0.00 | 0.00 | 0.00 | 85 | ||
| 20260503210829 | 52 | 0.0 | 0.0 | 0.00 | 0.00 | 0.00 | 85 | ||
| 20260503205755 | 53 | 0.0 | 0.0 | 0.00 | 0.00 | 0.00 | 85 | ||
| 20260503204721 | 53 | 0.0 | 0.0 | 0.00 | 0.00 | 0.00 | 85 | ||
| 20260503203648 | 54 | 0.0 | 0.0 | 0.00 | 0.00 | 0.00 | 84 | ||
| 20260503202613 | 54 | 0.0 | 0.0 | 0.00 | 0.00 | 0.00 | 83 | ||
| 20260503201539 | 55 | 0.0 | 0.0 | 0.00 | 0.00 | 0.00 | 83 | ||
| 20260503200505 | 55 | 0.0 | 0.0 | 0.00 | 0.00 | 0.00 | 82 | ||
| 20260503195431 | 55 | 0.0 | 0.0 | 0.00 | 0.00 | 0.00 | 82 | ||
| 20260503194358 | 55 | 0.0 | 0.0 | 0.00 | 0.00 | 0.00 | 82 | ||
| 20260503193323 | 55 | 0.0 | 0.0 | 0.00 | 0.00 | 0.00 | 81 | ||
| 20260503192249 | 55 | 0.0 | 0.0 | 0.00 | 0.00 | 0.00 | 80 | ||
| 20260503191215 | 56 | 0.0 | 0.0 | 0.00 | 0.00 | 0.00 | 79 | ||
| 20260503190141 | 56 | 0.0 | 0.0 | 0.00 | 0.00 | 0.00 | 78 | ||
| 20260503185106 | 57 | 0.0 | 0.0 | 0.00 | 0.00 | 0.00 | 76 | ||
| 20260503184032 | 58 | 0.0 | 0.0 | 0.00 | 0.00 | 0.00 | 75 | ||
| 20260503182957 | 59 | 0.0 | 0.0 | 0.00 | 0.00 | 0.00 | 74 | ||
| 20260503181921 | 61 | 0.0 | 0.0 | 0.00 | 0.00 | 0.00 | 72 | ||
| 20260503180844 | 62 | 0.0 | 0.0 | 0.00 | 0.00 | 0.00 | 71 | ||
| 20260503175808 | 64 | 0.0 | 0.0 | 0.00 | 0.00 | 0.00 | 70 | ||
| 20260503174731 | 65 | 0.0 | 0.0 | 0.00 | 0.00 | 0.00 | 67 | ||
| 20260503171542 | 67 | 0.0 | 0.0 | 0.00 | 0.00 | 0.00 | 60 | ||
| 20260503170504 | 68 | 0.0 | 0.0 | 0.00 | 0.00 | 0.00 | 60 | ||
| 20260503160118 | 70 | 0.0 | 0.0 | 0.00 | 0.00 | 0.00 | 55 | ||
| 20260503150805 | 72 | 0.0 | 0.0 | 0.00 | 0.00 | 0.00 | 46 | ||
| 20260503131055 | 81 | 0.0 | 0.0 | 0.00 | 0.00 | 0.00 | 40 | ||
| 20260503110225 | 82 | 0.0 | 0.0 | 0.00 | 0.00 | 0.00 | 41 | ||
| 20260503090423 | 80 | 0.0 | 0.0 | 0.00 | 0.00 | 0.00 | 44 | ||
| 20260503081050 | 73 | 0.0 | 0.0 | 0.00 | 0.00 | 0.00 | 50 | ||
| 20260503072813 | 63 | 0.0 | 0.0 | 0.00 | 0.00 | 0.00 | 69 | ||
| 20260503071736 | 65 | 0.0 | 0.0 | 0.00 | 0.00 | 0.00 | 65 | ||
| 20260503054210 | 51 | 0.0 | 0.0 | 0.00 | 0.00 | 0.00 | 96 | ||
| 20260503053136 | 49 | 0.0 | 0.0 | 0.00 | 0.00 | 0.00 | 95 | ||
| 20260503051031 | 47 | 0.0 | 0.0 | 0.00 | 0.00 | 0.00 | 95 | ||
| 20260503045959 | 45 | 0.0 | 0.0 | 0.00 | 0.00 | 0.00 | 95 | ||
| 20260503044926 | 44 | 0.0 | 0.0 | 0.00 | 0.00 | 0.00 | 95 | ||
| 20260503043854 | 43 | 0.0 | 0.0 | 0.00 | 0.00 | 0.00 | 94 | ||
| 20260503042823 | 43 | 0.0 | 0.0 | 0.00 | 0.00 | 0.00 | 94 |